AMAZONAS NEXUS

Last updated on Mon Oct 20 2025 00:02:50 GMT+0000 (Coordinated Universal Time)

1 55508U 23017A 25292.25518382 .00000000 00000+0 00000+0 0 9998 2 55508 0.0149 33.8410 0001123 141.0685 243.9325 1.00269122 4623
UTC large
Height (km)
Speed (km/s)
/
Latitude / Longitude
Inclination (degrees)
Orbital Period (minutes)
Azimuth
Elevation
Range (km)
Doppler Factor

Next 0 passes for location: London (51.5072 / 0.1276)

Sorry there are no passes over London.